Time,TemperatureF,DewpointF,PressureIn,WindDirection,WindDirectionDegrees,WindSpeedMPH,WindSpeedGustMPH,Humidity,HourlyPrecipIn,Conditions,Clouds,dailyrainin,SoftwareType,DateUTC
2013-08-03 00:02:00,73.0,66.0,29.94,WSW,238,0.0,3.0,80,0.00,,,0.00,,2013-08-03 04:02:00,
2013-08-03 00:12:00,72.0,66.0,29.94,WSW,238,1.0,4.0,81,0.00,,,0.00,,2013-08-03 04:12:00,
2013-08-03 00:22:00,72.0,65.0,29.94,WSW,238,0.0,2.0,80,0.00,,,0.00,,2013-08-03 04:22:00,
2013-08-03 00:33:00,72.0,66.0,29.94,WSW,238,0.0,4.0,81,0.00,,,0.00,,2013-08-03 04:33:00,
2013-08-03 00:43:00,72.0,66.0,29.94,WSW,238,0.0,3.0,81,0.00,,,0.00,,2013-08-03 04:43:00,
2013-08-03 01:02:00,72.0,66.0,29.94,WSW,238,0.0,3.0,82,0.00,,,0.00,,2013-08-03 05:02:00,
2013-08-03 01:12:00,72.0,66.0,29.93,WSW,238,0.0,0.0,82,0.00,,,0.00,,2013-08-03 05:12:00,
2013-08-03 01:32:00,72.0,66.0,29.95,WSW,238,0.0,0.0,82,0.00,,,0.00,,2013-08-03 05:32:00,
2013-08-03 01:42:00,71.0,65.0,29.95,WSW,238,0.0,0.0,82,0.00,,,0.00,,2013-08-03 05:42:00,
2013-08-03 01:52:00,71.0,65.0,29.95,WSW,238,0.0,0.0,82,0.00,,,0.00,,2013-08-03 05:52:00,
2013-08-03 02:02:00,71.0,65.0,29.95,WSW,238,0.0,0.0,82,0.00,,,0.00,,2013-08-03 06:02:00,
2013-08-03 02:33:00,71.0,66.0,29.95,WSW,238,0.0,0.0,83,0.00,,,0.00,,2013-08-03 06:33:00,
2013-08-03 02:42:00,71.0,66.0,29.95,WSW,238,0.0,0.0,83,0.00,,,0.00,,2013-08-03 06:42:00,
2013-08-03 02:52:00,71.0,66.0,29.95,WSW,238,0.0,0.0,83,0.00,,,0.00,,2013-08-03 06:52:00,
2013-08-03 03:02:00,71.0,66.0,29.95,WSW,238,0.0,0.0,83,0.00,,,0.00,,2013-08-03 07:02:00,
2013-08-03 03:12:00,71.0,66.0,29.95,WSW,238,0.0,0.0,84,0.00,,,0.00,,2013-08-03 07:12:00,
2013-08-03 03:22:00,71.0,66.0,29.95,WSW,238,0.0,0.0,84,0.00,,,0.00,,2013-08-03 07:22:00,
2013-08-03 03:32:00,71.0,66.0,29.95,WSW,239,0.0,0.0,84,0.00,,,0.00,,2013-08-03 07:32:00,
2013-08-03 03:43:00,71.0,66.0,29.94,WSW,238,0.0,0.0,84,0.00,,,0.00,,2013-08-03 07:43:00,
2013-08-03 03:52:00,71.0,66.0,29.93,WSW,238,0.0,0.0,84,0.00,,,0.00,,2013-08-03 07:52:00,
2013-08-03 04:02:00,71.0,66.0,29.93,WSW,238,0.0,0.0,84,0.00,,,0.00,,2013-08-03 08:02:00,
2013-08-03 04:22:00,70.0,65.0,29.94,WSW,238,0.0,0.0,85,0.00,,,0.00,,2013-08-03 08:22:00,
2013-08-03 04:32:00,70.0,66.0,29.93,WSW,238,0.0,0.0,86,0.00,,,0.00,,2013-08-03 08:32:00,
2013-08-03 04:43:00,70.0,66.0,29.93,WSW,238,0.0,0.0,86,0.00,,,0.00,,2013-08-03 08:43:00,
2013-08-03 04:52:00,70.0,66.0,29.93,WSW,238,0.0,0.0,86,0.00,,,0.00,,2013-08-03 08:52:00,
2013-08-03 05:02:00,70.0,66.0,29.94,WSW,238,0.0,0.0,86,0.00,,,0.00,,2013-08-03 09:02:00,
2013-08-03 05:12:00,70.0,66.0,29.94,WSW,238,0.0,0.0,86,0.00,,,0.00,,2013-08-03 09:12:00,
2013-08-03 05:22:00,70.0,65.0,29.93,WSW,238,0.0,0.0,85,0.00,,,0.00,,2013-08-03 09:22:00,
2013-08-03 05:32:00,70.0,66.0,29.93,WSW,238,0.0,0.0,86,0.00,,,0.00,,2013-08-03 09:32:00,
2013-08-03 05:43:00,70.0,66.0,29.94,WSW,238,0.0,0.0,86,0.00,,,0.00,,2013-08-03 09:43:00,
2013-08-03 05:53:00,70.0,66.0,29.94,WSW,238,0.0,0.0,86,0.00,,,0.00,,2013-08-03 09:53:00,
2013-08-03 06:02:00,70.0,66.0,29.95,WSW,238,0.0,0.0,86,0.00,,,0.00,,2013-08-03 10:02:00,
2013-08-03 06:22:00,70.0,66.0,29.95,WSW,238,0.0,0.0,86,0.00,,,0.00,,2013-08-03 10:22:00,
2013-08-03 06:32:00,69.0,65.0,29.95,WSW,238,0.0,0.0,86,0.00,,,0.00,,2013-08-03 10:32:00,
2013-08-03 06:42:00,69.0,65.0,29.95,WSW,238,0.0,3.0,86,0.00,,,0.00,,2013-08-03 10:42:00,
2013-08-03 06:52:00,69.0,65.0,29.95,WSW,238,0.0,3.0,86,0.00,,,0.00,,2013-08-03 10:52:00,
2013-08-03 07:02:00,69.0,65.0,29.95,WSW,238,0.0,3.0,86,0.00,,,0.00,,2013-08-03 11:02:00,
2013-08-03 07:32:00,69.0,65.0,29.94,WSW,238,0.0,1.0,87,0.00,,,0.00,,2013-08-03 11:32:00,
2013-08-03 07:43:00,69.0,65.0,29.94,WSW,238,0.0,0.0,87,0.00,,,0.00,,2013-08-03 11:43:00,
2013-08-03 07:53:00,69.0,65.0,29.94,WSW,238,0.0,0.0,87,0.00,,,0.00,,2013-08-03 11:53:00,
2013-08-03 08:03:00,69.0,65.0,29.95,WSW,238,0.0,0.0,87,0.00,,,0.00,,2013-08-03 12:03:00,
2013-08-03 08:33:00,69.0,65.0,29.96,WSW,238,0.0,0.0,88,0.03,,,0.03,,2013-08-03 12:33:00,
2013-08-03 08:52:00,69.0,65.0,29.96,WSW,238,0.0,0.0,88,0.06,,,0.06,,2013-08-03 12:52:00,
2013-08-03 09:02:00,69.0,65.0,29.95,WSW,238,0.0,0.0,88,0.08,,,0.08,,2013-08-03 13:02:00,
2013-08-03 09:12:00,69.0,65.0,29.95,WSW,238,0.0,0.0,88,0.08,,,0.08,,2013-08-03 13:12:00,
2013-08-03 09:22:00,69.0,66.0,29.94,WSW,238,0.0,0.0,89,0.07,,,0.08,,2013-08-03 13:22:00,
2013-08-03 09:52:00,69.0,66.0,29.97,WSW,238,1.0,3.0,91,0.03,,,0.09,,2013-08-03 13:52:00,
2013-08-03 10:02:00,69.0,66.0,29.97,WSW,238,0.0,1.0,90,0.03,,,0.11,,2013-08-03 14:02:00,
2013-08-03 10:13:00,69.0,66.0,29.97,WSW,238,0.0,1.0,90,0.03,,,0.11,,2013-08-03 14:13:00,
2013-08-03 10:33:00,69.0,66.0,29.95,WSW,238,0.0,0.0,90,0.03,,,0.12,,2013-08-03 14:33:00,
2013-08-03 10:42:00,69.0,66.0,29.95,WSW,238,0.0,0.0,91,0.03,,,0.12,,2013-08-03 14:42:00,
2013-08-03 10:52:00,69.0,67.0,29.95,WSW,238,0.0,1.0,92,0.03,,,0.12,,2013-08-03 14:52:00,
2013-08-03 11:02:00,70.0,68.0,29.95,WSW,238,0.0,0.0,92,0.01,,,0.12,,2013-08-03 15:02:00,
2013-08-03 11:12:00,70.0,68.0,29.95,WSW,238,0.0,0.0,92,0.00,,,0.12,,2013-08-03 15:12:00,
2013-08-03 11:23:00,70.0,68.0,29.96,WSW,238,0.0,0.0,92,0.00,,,0.12,,2013-08-03 15:23:00,
2013-08-03 11:32:00,70.0,68.0,29.96,WSW,238,0.0,0.0,92,0.00,,,0.12,,2013-08-03 15:32:00,
2013-08-03 11:43:00,70.0,68.0,29.96,WSW,238,0.0,0.0,92,0.00,,,0.12,,2013-08-03 15:43:00,
2013-08-03 11:53:00,70.0,68.0,29.96,WSW,238,0.0,0.0,92,0.00,,,0.12,,2013-08-03 15:53:00,
2013-08-03 12:02:00,70.0,68.0,29.96,WSW,238,0.0,0.0,92,0.00,,,0.12,,2013-08-03 16:02:00,
2013-08-03 12:12:00,70.0,68.0,29.96,WSW,238,0.0,0.0,92,0.00,,,0.12,,2013-08-03 16:12:00,
2013-08-03 12:23:00,71.0,69.0,29.96,WSW,238,0.0,0.0,92,0.00,,,0.12,,2013-08-03 16:23:00,
2013-08-03 12:33:00,71.0,69.0,29.97,WSW,238,0.0,0.0,92,0.00,,,0.12,,2013-08-03 16:33:00,
2013-08-03 12:43:00,71.0,69.0,29.97,WSW,238,0.0,4.0,92,0.00,,,0.12,,2013-08-03 16:43:00,
2013-08-03 12:53:00,72.0,70.0,29.96,WSW,238,0.0,0.0,92,0.00,,,0.12,,2013-08-03 16:53:00,
2013-08-03 13:03:00,72.0,70.0,29.96,WSW,238,0.0,0.0,92,0.00,,,0.12,,2013-08-03 17:03:00,
2013-08-03 13:12:00,72.0,69.0,29.96,WSW,238,0.0,0.0,91,0.00,,,0.12,,2013-08-03 17:12:00,
2013-08-03 13:22:00,73.0,70.0,29.97,WSW,240,0.0,0.0,90,0.00,,,0.12,,2013-08-03 17:22:00,
2013-08-03 13:32:00,73.0,70.0,29.96,WSW,240,0.0,0.0,89,0.00,,,0.12,,2013-08-03 17:32:00,
2013-08-03 13:43:00,74.0,70.0,29.96,WSW,240,0.0,0.0,88,0.00,,,0.12,,2013-08-03 17:43:00,
2013-08-03 13:52:00,74.0,71.0,29.96,WSW,240,0.0,0.0,89,0.00,,,0.12,,2013-08-03 17:52:00,
2013-08-03 14:02:00,74.0,70.0,29.96,WSW,241,0.0,0.0,88,0.00,,,0.12,,2013-08-03 18:02:00,
2013-08-03 14:12:00,75.0,71.0,29.96,WSW,242,0.0,0.0,87,0.00,,,0.12,,2013-08-03 18:12:00,
2013-08-03 14:22:00,75.0,71.0,29.96,WSW,249,0.0,0.0,86,0.00,,,0.12,,2013-08-03 18:22:00,
2013-08-03 14:32:00,75.0,71.0,29.96,WSW,249,0.0,0.0,86,0.00,,,0.12,,2013-08-03 18:32:00,
2013-08-03 14:43:00,76.0,71.0,29.96,West,266,0.0,0.0,84,0.00,,,0.12,,2013-08-03 18:43:00,
2013-08-03 14:53:00,76.0,71.0,29.96,West,266,0.0,0.0,84,0.00,,,0.12,,2013-08-03 18:53:00,
2013-08-03 15:03:00,76.0,71.0,29.96,WNW,283,0.0,6.0,84,0.00,,,0.12,,2013-08-03 19:03:00,
2013-08-03 15:12:00,77.0,71.0,29.96,NW,317,2.0,8.0,82,0.00,,,0.12,,2013-08-03 19:12:00,
2013-08-03 15:22:00,77.0,71.0,29.96,North,350,3.0,9.0,82,0.00,,,0.12,,2013-08-03 19:22:00,
2013-08-03 15:32:00,77.0,71.0,29.96,NNW,347,3.0,7.0,81,0.00,,,0.12,,2013-08-03 19:32:00,
2013-08-03 15:43:00,77.0,70.0,29.96,NNW,345,1.0,8.0,80,0.00,,,0.12,,2013-08-03 19:43:00,
2013-08-03 15:52:00,77.0,71.0,29.96,NNW,344,3.0,6.0,81,0.00,,,0.12,,2013-08-03 19:52:00,
2013-08-03 16:02:00,77.0,71.0,29.95,NNW,344,2.0,4.0,81,0.00,,,0.12,,2013-08-03 20:02:00,
2013-08-03 16:12:00,77.0,71.0,29.95,North,359,6.0,10.0,81,0.00,,,0.12,,2013-08-03 20:12:00,
2013-08-03 16:22:00,77.0,71.0,29.95,North,359,3.0,6.0,81,0.00,,,0.12,,2013-08-03 20:22:00,
2013-08-03 16:32:00,78.0,72.0,29.95,North,359,3.0,8.0,81,0.00,,,0.12,,2013-08-03 20:32:00,
2013-08-03 16:42:00,78.0,71.0,29.95,North,352,3.0,8.0,80,0.00,,,0.12,,2013-08-03 20:42:00,
2013-08-03 16:52:00,78.0,72.0,29.95,North,352,1.0,6.0,81,0.00,,,0.12,,2013-08-03 20:52:00,
2013-08-03 17:02:00,78.0,71.0,29.95,North,356,4.0,10.0,80,0.00,,,0.12,,2013-08-03 21:02:00,
2013-08-03 17:12:00,78.0,71.0,29.95,North,355,3.0,7.0,80,0.00,,,0.12,,2013-08-03 21:12:00,
2013-08-03 17:22:00,78.0,71.0,29.95,North,352,2.0,8.0,79,0.00,,,0.12,,2013-08-03 21:22:00,
2013-08-03 17:32:00,78.0,71.0,29.95,North,359,2.0,7.0,78,0.00,,,0.12,,2013-08-03 21:32:00,
2013-08-03 17:42:00,78.0,71.0,29.94,North,359,2.0,8.0,79,0.00,,,0.12,,2013-08-03 21:42:00,
2013-08-03 17:52:00,79.0,71.0,29.95,NNW,333,2.0,8.0,77,0.00,,,0.12,,2013-08-03 21:52:00,
2013-08-03 18:02:00,79.0,71.0,29.94,North,350,2.0,8.0,76,0.00,,,0.12,,2013-08-03 22:02:00,
2013-08-03 18:12:00,79.0,70.0,29.94,NW,305,3.0,6.0,74,0.00,,,0.12,,2013-08-03 22:12:00,
2013-08-03 18:22:00,79.0,70.0,29.94,North,355,4.0,8.0,74,0.00,,,0.12,,2013-08-03 22:22:00,
2013-08-03 18:33:00,80.0,71.0,29.94,North,2,4.0,10.0,75,0.00,,,0.12,,2013-08-03 22:33:00,
2013-08-03 18:43:00,80.0,71.0,29.94,NNW,341,3.0,10.0,75,0.00,,,0.12,,2013-08-03 22:43:00,
2013-08-03 18:52:00,80.0,71.0,29.94,North,0,3.0,8.0,73,0.00,,,0.12,,2013-08-03 22:52:00,
2013-08-03 19:02:00,79.0,70.0,29.94,North,2,5.0,11.0,73,0.00,,,0.12,,2013-08-03 23:02:00,
2013-08-03 19:12:00,79.0,70.0,29.95,North,4,3.0,6.0,73,0.00,,,0.12,,2013-08-03 23:12:00,
2013-08-03 19:22:00,79.0,70.0,29.94,North,0,3.0,7.0,73,0.00,,,0.12,,2013-08-03 23:22:00,
2013-08-03 19:32:00,79.0,70.0,29.94,North,0,3.0,7.0,73,0.00,,,0.12,,2013-08-03 23:32:00,
2013-08-03 19:43:00,78.0,69.0,29.94,North,359,3.0,7.0,73,0.00,,,0.12,,2013-08-03 23:43:00,
2013-08-03 19:52:00,78.0,69.0,29.94,North,357,2.0,8.0,73,0.00,,,0.12,,2013-08-03 23:52:00,
2013-08-03 20:03:00,78.0,69.0,29.95,North,358,3.0,5.0,73,0.00,,,0.12,,2013-08-04 00:03:00,
2013-08-03 20:12:00,78.0,69.0,29.95,North,359,0.0,6.0,73,0.00,,,0.12,,2013-08-04 00:12:00,
2013-08-03 20:22:00,77.0,68.0,29.95,North,359,1.0,5.0,73,0.00,,,0.12,,2013-08-04 00:22:00,
2013-08-03 20:32:00,77.0,68.0,29.95,North,359,0.0,6.0,73,0.00,,,0.12,,2013-08-04 00:32:00,
2013-08-03 20:42:00,77.0,68.0,29.95,North,359,0.0,6.0,73,0.00,,,0.12,,2013-08-04 00:42:00,
2013-08-03 20:53:00,77.0,68.0,29.95,North,359,0.0,6.0,73,0.00,,,0.12,,2013-08-04 00:53:00,
2013-08-03 21:02:00,76.0,66.0,29.95,North,359,2.0,6.0,72,0.00,,,0.12,,2013-08-04 01:02:00,
2013-08-03 21:12:00,76.0,66.0,29.95,North,359,0.0,4.0,72,0.00,,,0.12,,2013-08-04 01:12:00,
2013-08-03 21:22:00,76.0,66.0,29.95,North,359,0.0,4.0,72,0.00,,,0.12,,2013-08-04 01:22:00,
2013-08-03 21:32:00,76.0,66.0,29.95,North,359,0.0,4.0,72,0.00,,,0.12,,2013-08-04 01:32:00,
2013-08-03 21:42:00,75.0,66.0,29.96,North,359,0.0,0.0,73,0.00,,,0.12,,2013-08-04 01:42:00,
2013-08-03 21:53:00,75.0,66.0,29.96,North,359,0.0,0.0,73,0.00,,,0.12,,2013-08-04 01:53:00,
2013-08-03 22:02:00,74.0,65.0,29.96,North,359,0.0,3.0,73,0.00,,,0.12,,2013-08-04 02:02:00,
2013-08-03 22:12:00,74.0,65.0,29.96,North,359,0.0,3.0,73,0.00,,,0.12,,2013-08-04 02:12:00,
2013-08-03 22:22:00,74.0,65.0,29.96,North,359,0.0,3.0,73,0.00,,,0.12,,2013-08-04 02:22:00,
2013-08-03 22:32:00,74.0,65.0,29.97,North,359,0.0,0.0,73,0.00,,,0.12,,2013-08-04 02:32:00,
2013-08-03 22:42:00,74.0,65.0,29.97,North,359,0.0,0.0,73,0.00,,,0.12,,2013-08-04 02:42:00,
2013-08-03 22:52:00,72.0,64.0,29.98,North,359,0.0,0.0,75,0.00,,,0.12,,2013-08-04 02:52:00,
2013-08-03 23:02:00,72.0,64.0,29.98,North,359,0.0,0.0,76,0.00,,,0.12,,2013-08-04 03:02:00,
2013-08-03 23:12:00,71.0,64.0,29.98,North,359,0.0,0.0,78,0.00,,,0.12,,2013-08-04 03:12:00,
2013-08-03 23:22:00,71.0,64.0,29.98,North,359,0.0,0.0,78,0.00,,,0.12,,2013-08-04 03:22:00,
2013-08-03 23:32:00,71.0,64.0,29.98,North,359,0.0,0.0,79,0.00,,,0.12,,2013-08-04 03:32:00,
2013-08-03 23:42:00,71.0,64.0,29.98,North,359,0.0,0.0,79,0.00,,,0.12,,2013-08-04 03:42:00,
2013-08-03 23:52:00,71.0,64.0,29.98,North,359,0.0,0.0,79,0.00,,,0.12,,2013-08-04 03:52:00,